Weather History for Whiting Fld NAS, FL

Change the Weather History Date:

Monday, September 17, 2012

  Actual Average Record
Temperature  
Mean Temperature 76 °F -  
Max Temperature 80 °F 83 °F 96 °F (1997)
Min Temperature 73 °F 67 °F 60 °F (1999)
Cooling Degree Days 12    
Growing Degree Days 26 (Base 50)    
Moisture  
Dew Point 73 °F    
Average Humidity 95    
Maximum Humidity 100    
Minimum Humidity 83    
Precipitation  
Precipitation 3.53 in - - ()
Sea Level Pressure  
Sea Level Pressure 29.87 in    
Wind  
Wind Speed 6 mph (SE)    
Max Wind Speed 17 mph    
Max Gust Speed 21 mph    
Visibility 6 miles    
Events Rain , Thunderstorm    
Averages and records for this station are not official NWS values.
T = Trace of Precipitation, MM = Missing Value Source: NWS Daily Summary

Daily Weather History Graph

Daily Weather History Graph

Search for Another Location

Airport:

Trip Planner

Search our weather history database for the weather conditions in past years. The results will help you decide how hot, cold, wet, or windy it might be!

Date:

Astronomy

Sep. 17, 2012 Rise Set
Actual Time 6:33 AM CDT 6:50 PM CDT
Civil Twilight 6:09 AM CDT 7:14 PM CDT
Nautical Twilight 5:41 AM CDT 7:42 PM CDT
Astronomical Twilight 5:12 AM CDT 8:11 PM CDT
Moon 8:10 AM CDT (9/17) 7:46 PM CDT (9/17)
Length of Visible Light 13h 04m
Length of Day
12h 16m
Waxing Crescent, 3% of the Moon is Illuminated
Sep 17
Waxing Crescent
Sep 22
First Quarter
Sep 29
Full
Oct 8
Last Quarter
Oct 15
New

Hourly Weather History & Observations

Time (CDT) Temp. Heat Index Dew Point Humidity Pressure Visibility Wind Dir Wind Speed Gust Speed Precip Events Conditions
12:56 AM 75.0 °F - 73.0 °F 94% 29.93 in 10.0 mi East 4.6 mph - 0.00 in Rain Light Rain
1:56 AM 73.9 °F - 73.0 °F 97% 29.92 in 10.0 mi East 4.6 mph - 0.00 in Rain Light Rain
2:56 AM 73.9 °F - 73.0 °F 97% 29.91 in 8.0 mi East 5.8 mph - 0.00 in   Partly Cloudy
3:56 AM 73.9 °F - 73.0 °F 97% 29.88 in 9.0 mi ENE 4.6 mph - 0.00 in   Clear
4:56 AM 73.9 °F - 73.0 °F 97% 29.88 in 9.0 mi ESE 6.9 mph - 0.01 in   Mostly Cloudy
5:56 AM 73.9 °F - 73.0 °F 97% 29.88 in 9.0 mi East 3.5 mph - 0.00 in   Clear
6:10 AM 73.4 °F - 73.4 °F 100% 29.92 in 6.0 mi East 3.5 mph - N/A   Mostly Cloudy
6:56 AM 73.9 °F - 73.0 °F 97% 29.88 in 7.0 mi East 5.8 mph - N/A   Mostly Cloudy
7:37 AM 75.2 °F - 73.4 °F 94% 29.93 in 10.0 mi East 5.8 mph - N/A   Mostly Cloudy
7:56 AM 75.9 °F - 73.9 °F 94% 29.89 in 10.0 mi East 6.9 mph - N/A   Mostly Cloudy
8:16 AM 75.2 °F - 73.4 °F 94% 29.93 in 3.0 mi East 8.1 mph - 0.01 in Rain Light Rain
8:36 AM 75.2 °F - 75.2 °F 100% 29.93 in 3.0 mi ESE 6.9 mph - 0.05 in Rain , Thunderstorm Light Thunderstorms and Rain
8:47 AM 75.2 °F - 75.2 °F 100% 29.93 in 2.0 mi SSE 9.2 mph - 0.14 in Rain , Thunderstorm Thunderstorms and Rain
8:56 AM 75.9 °F - 75.0 °F 97% 29.90 in 2.0 mi SSE 3.5 mph - 0.23 in Rain , Thunderstorm Thunderstorms and Rain
9:03 AM 75.2 °F - 75.2 °F 100% 29.94 in 1.5 mi SW 5.8 mph - 0.09 in Rain , Thunderstorm Thunderstorms and Rain
9:20 AM 75.2 °F - 73.4 °F 94% 29.94 in 1.0 mi SW 6.9 mph - 0.26 in Rain , Thunderstorm Heavy Thunderstorms and Rain
9:35 AM 75.2 °F - 73.4 °F 94% 29.93 in 2.0 mi SSW 5.8 mph - 0.74 in Rain , Thunderstorm Thunderstorms and Rain
9:46 AM 75.2 °F - 73.4 °F 94% 29.93 in 3.0 mi ESE 3.5 mph - 0.76 in Rain , Thunderstorm Light Thunderstorms and Rain
9:56 AM 75.9 °F - 73.9 °F 94% 29.88 in 2.0 mi SE 5.8 mph - 0.80 in Rain , Thunderstorm Thunderstorms and Rain
10:27 AM 77.0 °F - 75.2 °F 94% 29.92 in 1.0 mi SSE 3.5 mph - 0.10 in Rain , Thunderstorm Heavy Thunderstorms and Rain
10:56 AM 75.9 °F - 75.0 °F 97% 29.89 in 1.0 mi SE 16.1 mph 20.7 mph 0.32 in Rain , Thunderstorm Heavy Thunderstorms and Rain
11:01 AM 75.2 °F - 73.4 °F 94% 29.93 in 0.8 mi SE 11.5 mph 20.7 mph 0.26 in Rain , Thunderstorm Heavy Thunderstorms and Rain
11:11 AM 75.2 °F - 73.4 °F 94% 29.93 in 1.5 mi SE 8.1 mph - 0.43 in Rain , Thunderstorm Thunderstorms and Rain
11:19 AM 75.2 °F - 73.4 °F 94% 29.92 in 3.0 mi ESE 4.6 mph - 0.44 in Rain , Thunderstorm Light Thunderstorms and Rain
11:28 AM 77.0 °F - 75.2 °F 94% 29.91 in 7.0 mi ESE 3.5 mph - 0.44 in Thunderstorm Thunderstorm
11:56 AM 80.1 °F 85.4 °F 75.9 °F 87% 29.86 in 7.0 mi ESE 5.8 mph - 0.44 in Thunderstorm Thunderstorm
12:14 PM 78.8 °F - 75.2 °F 89% 29.91 in 3.0 mi SSE 9.2 mph - 0.02 in Rain , Thunderstorm Thunderstorms and Rain
12:18 PM 78.8 °F - 75.2 °F 89% 29.90 in 0.8 mi South 10.4 mph 19.6 mph 0.18 in Rain , Thunderstorm Heavy Thunderstorms and Rain
12:38 PM 75.2 °F - 71.6 °F 89% 29.88 in 3.0 mi Calm Calm - 0.57 in Rain , Thunderstorm Thunderstorms and Rain
12:45 PM 77.0 °F - 71.6 °F 83% 29.88 in 7.0 mi Calm Calm - 0.57 in Thunderstorm Thunderstorm
12:56 PM 78.1 °F - 73.9 °F 87% 29.85 in 6.0 mi ESE 9.2 mph - 0.57 in Rain , Thunderstorm Light Thunderstorms and Rain
1:12 PM 77.0 °F - 75.2 °F 94% 29.89 in 7.0 mi SE 9.2 mph - 0.00 in Thunderstorm Thunderstorm
1:56 PM 77.0 °F - 75.0 °F 94% 29.83 in 4.0 mi SE 9.2 mph 16.1 mph 0.00 in Rain , Thunderstorm Light Thunderstorms and Rain
2:22 PM 75.2 °F - 73.4 °F 94% 29.85 in 2.0 mi SE 9.2 mph - 0.07 in Rain , Thunderstorm Thunderstorms and Rain
2:26 PM 75.2 °F - 73.4 °F 94% 29.84 in 4.0 mi ESE 9.2 mph - 0.07 in Rain , Thunderstorm Light Thunderstorms and Rain
2:36 PM 75.2 °F - 73.4 °F 94% 29.84 in 7.0 mi SE 6.9 mph - 0.07 in Thunderstorm Thunderstorm
2:49 PM 75.2 °F - 73.4 °F 94% 29.87 in 3.0 mi West 17.3 mph - 0.09 in Rain , Thunderstorm Thunderstorms and Rain
2:56 PM 73.9 °F - 71.1 °F 91% 29.82 in 5.0 mi WNW 6.9 mph 19.6 mph 0.21 in Rain , Thunderstorm Light Thunderstorms and Rain
3:20 PM 73.4 °F - 71.6 °F 94% 29.87 in 2.0 mi Variable 6.9 mph - 0.06 in Rain , Thunderstorm Light Thunderstorms and Rain
3:50 PM 73.4 °F - 71.6 °F 94% 29.84 in 6.0 mi Calm Calm - 0.07 in Rain , Thunderstorm Light Thunderstorms and Rain
4:14 PM 73.4 °F - 71.6 °F 94% 29.85 in 0.5 mi SSE 3.5 mph - 0.83 in Rain , Thunderstorm Thunderstorms and Rain
4:29 PM 73.4 °F - 71.6 °F 94% 29.82 in 3.0 mi East 4.6 mph - 0.95 in Rain , Thunderstorm Thunderstorms and Rain
4:48 PM 73.4 °F - 73.4 °F 100% 29.81 in 10.0 mi ESE 4.6 mph - 0.95 in Rain Light Rain
4:56 PM 73.9 °F - 73.0 °F 97% 29.77 in 10.0 mi SE 4.6 mph - 0.95 in   Overcast
5:41 PM 73.4 °F - 71.6 °F 94% 29.81 in 10.0 mi ESE 5.8 mph - 0.00 in Rain Light Rain
5:56 PM 73.0 °F - 73.0 °F 100% 29.75 in 8.0 mi East 3.5 mph - 0.00 in Rain Light Rain
6:39 PM 73.4 °F - 73.4 °F 100% 29.79 in 10.0 mi ESE 4.6 mph - 0.00 in   Overcast
6:56 PM 73.9 °F - 73.0 °F 97% 29.74 in 8.0 mi ESE 5.8 mph - 0.00 in   Overcast
7:56 PM 73.9 °F - 73.0 °F 97% 29.75 in 9.0 mi SE 5.8 mph - N/A   Overcast
8:56 PM 73.9 °F - 73.0 °F 97% 29.76 in 10.0 mi SE 6.9 mph - N/A   Overcast
9:56 PM 73.9 °F - 73.0 °F 97% 29.77 in 10.0 mi SE 8.1 mph - N/A   Overcast
10:56 PM 75.0 °F - 73.0 °F 94% 29.76 in 10.0 mi SE 5.8 mph - N/A   Overcast
11:56 PM 75.0 °F - 73.9 °F 96% 29.74 in 10.0 mi SE 6.9 mph - N/A   Overcast